Time,TemperatureF,DewpointF,PressureIn,WindDirection,WindDirectionDegrees,WindSpeedMPH,WindSpeedGustMPH,Humidity,HourlyPrecipIn,Conditions,Clouds,dailyrainin,SoftwareType,DateUTC
2013-06-25 00:02:00,75.9,69.4,29.63,SSE,155,3.0,9.0,80,0.00,,,0.74,meteohub,2013-06-25 05:02:00,
2013-06-25 00:07:00,75.9,69.3,29.63,SSE,148,0.0,7.0,81,0.00,,,0.00,meteohub,2013-06-25 05:07:00,
2013-06-25 00:12:00,75.9,69.3,29.63,SSE,164,4.0,7.0,81,0.00,,,0.00,meteohub,2013-06-25 05:12:00,
2013-06-25 00:17:00,75.9,69.3,29.64,South,185,3.0,6.0,81,0.00,,,0.00,meteohub,2013-06-25 05:17:00,
2013-06-25 00:22:00,75.9,69.3,29.63,SSE,162,0.0,6.0,80,0.00,,,0.00,meteohub,2013-06-25 05:22:00,
2013-06-25 00:27:00,75.9,69.4,29.63,SE,128,8.0,8.0,80,0.00,,,0.00,meteohub,2013-06-25 05:27:00,
2013-06-25 00:32:00,75.9,69.3,29.63,SSE,163,2.0,8.0,80,0.00,,,0.00,meteohub,2013-06-25 05:32:00,
2013-06-25 00:37:00,75.9,69.4,29.63,SE,126,0.0,8.0,79,0.00,,,0.00,meteohub,2013-06-25 05:37:00,
2013-06-25 00:42:00,75.9,69.3,29.63,SE,133,2.0,8.0,78,0.00,,,0.00,meteohub,2013-06-25 05:42:00,
2013-06-25 00:47:00,75.9,69.4,29.64,SSE,161,4.0,8.0,78,0.00,,,0.00,meteohub,2013-06-25 05:47:00,
2013-06-25 00:52:00,75.9,69.3,29.63,SE,146,2.0,8.0,78,0.00,,,0.00,meteohub,2013-06-25 05:52:00,
2013-06-25 00:57:00,77.0,69.4,29.63,SSE,161,7.0,8.0,77,0.00,,,0.00,meteohub,2013-06-25 05:57:00,
2013-06-25 01:07:00,77.0,69.3,29.64,SSE,158,0.0,9.0,77,0.00,,,0.00,meteohub,2013-06-25 06:07:00,
2013-06-25 01:17:00,77.0,69.3,29.65,SSE,168,0.0,10.0,78,0.00,,,0.00,meteohub,2013-06-25 06:17:00,
2013-06-25 01:22:00,75.9,69.4,29.65,SSE,168,0.0,6.0,78,0.00,,,0.00,meteohub,2013-06-25 06:22:00,
2013-06-25 01:27:00,75.9,69.1,29.65,South,171,0.0,5.0,78,0.00,,,0.00,meteohub,2013-06-25 06:27:00,
2013-06-25 01:32:00,75.9,69.1,29.65,SSW,202,0.0,7.0,78,0.00,,,0.00,meteohub,2013-06-25 06:32:00,
2013-06-25 01:37:00,75.9,69.3,29.66,SSW,192,6.0,7.0,78,0.00,,,0.00,meteohub,2013-06-25 06:37:00,
2013-06-25 01:42:00,75.9,69.4,29.66,SSW,193,0.0,8.0,78,0.00,,,0.00,meteohub,2013-06-25 06:42:00,
2013-06-25 01:47:00,77.0,69.3,29.66,SSW,197,9.0,13.0,77,0.00,,,0.00,meteohub,2013-06-25 06:47:00,
2013-06-25 01:52:00,77.0,69.6,29.66,SW,226,6.0,13.0,77,0.00,,,0.00,meteohub,2013-06-25 06:52:00,
2013-06-25 01:57:00,77.0,69.3,29.67,SW,221,5.0,13.0,77,0.00,,,0.00,meteohub,2013-06-25 06:57:00,
2013-06-25 02:02:00,77.0,69.4,29.68,WSW,244,6.0,13.0,77,0.00,,,0.00,meteohub,2013-06-25 07:02:00,
2013-06-25 02:07:00,77.0,69.4,29.68,WSW,254,0.0,10.0,78,0.00,,,0.00,meteohub,2013-06-25 07:07:00,
2013-06-25 02:13:00,75.9,69.6,29.69,WSW,252,5.0,10.0,79,0.00,,,0.00,meteohub,2013-06-25 07:13:00,
2013-06-25 02:22:00,75.9,69.8,29.68,SW,222,6.0,14.0,79,0.00,,,0.00,meteohub,2013-06-25 07:22:00,
2013-06-25 02:27:00,75.9,69.8,29.68,SW,234,5.0,14.0,80,0.00,,,0.00,meteohub,2013-06-25 07:27:00,
2013-06-25 02:32:00,75.9,69.8,29.68,WSW,248,4.0,14.0,80,0.00,,,0.00,meteohub,2013-06-25 07:32:00,
2013-06-25 02:37:00,75.9,69.8,29.69,WSW,250,2.0,10.0,80,0.00,,,0.00,meteohub,2013-06-25 07:37:00,
2013-06-25 02:42:00,75.9,69.6,29.68,WSW,249,0.0,7.0,80,0.00,,,0.00,meteohub,2013-06-25 07:42:00,
2013-06-25 02:47:00,75.9,69.4,29.68,SW,233,1.0,7.0,80,0.00,,,0.00,meteohub,2013-06-25 07:47:00,
2013-06-25 02:52:00,75.9,69.8,29.67,SSW,199,0.0,7.0,81,0.00,,,0.00,meteohub,2013-06-25 07:52:00,
2013-06-25 02:57:00,75.9,69.6,29.68,SSW,208,0.0,7.0,81,0.00,,,0.00,meteohub,2013-06-25 07:57:00,
2013-06-25 03:02:00,75.9,69.8,29.67,SW,216,0.0,7.0,80,0.00,,,0.00,meteohub,2013-06-25 08:02:00,
2013-06-25 03:07:00,75.9,69.8,29.67,SW,216,0.0,7.0,80,0.00,,,0.00,meteohub,2013-06-25 08:07:00,
2013-06-25 03:12:00,75.9,69.6,29.67,SW,216,0.0,6.0,81,0.00,,,0.00,meteohub,2013-06-25 08:12:00,
2013-06-25 03:17:00,75.0,69.6,29.67,SW,216,0.0,2.0,81,0.00,,,0.00,meteohub,2013-06-25 08:17:00,
2013-06-25 03:22:00,75.0,69.6,29.66,South,172,0.0,2.0,82,0.00,,,0.00,meteohub,2013-06-25 08:22:00,
2013-06-25 03:27:00,75.0,69.6,29.66,South,186,0.0,4.0,82,0.00,,,0.00,meteohub,2013-06-25 08:27:00,
2013-06-25 03:32:00,75.0,69.4,29.66,South,186,0.0,5.0,82,0.00,,,0.00,meteohub,2013-06-25 08:32:00,
2013-06-25 03:37:00,75.0,69.6,29.66,South,186,0.0,5.0,82,0.00,,,0.00,meteohub,2013-06-25 08:37:00,
2013-06-25 03:42:00,75.0,69.6,29.66,South,186,0.0,3.0,83,0.00,,,0.00,meteohub,2013-06-25 08:42:00,
2013-06-25 03:47:00,73.9,69.4,29.66,South,186,0.0,2.0,83,0.00,,,0.00,meteohub,2013-06-25 08:47:00,
2013-06-25 03:52:00,73.9,69.3,29.66,South,186,0.0,2.0,84,0.00,,,0.00,meteohub,2013-06-25 08:52:00,
2013-06-25 03:57:00,73.9,69.4,29.66,South,186,0.0,2.0,84,0.00,,,0.00,meteohub,2013-06-25 08:57:00,
2013-06-25 04:02:00,73.9,69.4,29.66,South,186,0.0,1.0,84,0.00,,,0.00,meteohub,2013-06-25 09:02:00,
2013-06-25 04:07:00,73.9,69.3,29.66,South,186,0.0,1.0,84,0.00,,,0.00,meteohub,2013-06-25 09:07:00,
2013-06-25 04:12:00,73.9,68.9,29.66,South,186,0.0,1.0,84,0.00,,,0.00,meteohub,2013-06-25 09:12:00,
2013-06-25 04:17:00,73.9,68.7,29.65,South,186,0.0,1.0,84,0.00,,,0.00,meteohub,2013-06-25 09:17:00,
2013-06-25 04:22:00,73.9,68.9,29.65,South,186,0.0,1.0,85,0.00,,,0.00,meteohub,2013-06-25 09:22:00,
2013-06-25 04:27:00,73.9,69.1,29.65,South,186,0.0,1.0,85,0.00,,,0.00,meteohub,2013-06-25 09:27:00,
2013-06-25 04:32:00,73.9,69.1,29.65,South,186,0.0,1.0,85,0.00,,,0.00,meteohub,2013-06-25 09:32:00,
2013-06-25 04:37:00,73.0,68.9,29.64,South,184,0.0,1.0,85,0.00,,,0.00,meteohub,2013-06-25 09:37:00,
2013-06-25 04:42:00,73.0,68.7,29.64,South,184,0.0,1.0,85,0.00,,,0.00,meteohub,2013-06-25 09:42:00,
2013-06-25 04:52:00,73.0,68.7,29.63,East,79,0.0,3.0,86,0.00,,,0.00,meteohub,2013-06-25 09:52:00,
2013-06-25 04:57:00,73.0,68.4,29.63,East,79,0.0,3.0,86,0.00,,,0.00,meteohub,2013-06-25 09:57:00,
2013-06-25 05:02:00,72.0,68.5,29.63,East,79,0.0,3.0,87,0.00,,,0.00,meteohub,2013-06-25 10:02:00,
2013-06-25 05:07:00,72.0,68.4,29.62,East,79,0.0,2.0,87,0.00,,,0.00,meteohub,2013-06-25 10:07:00,
2013-06-25 05:12:00,72.0,68.4,29.62,East,79,0.0,2.0,87,0.00,,,0.00,meteohub,2013-06-25 10:12:00,
2013-06-25 05:17:00,72.0,68.2,29.63,East,79,0.0,1.0,88,0.00,,,0.00,meteohub,2013-06-25 10:17:00,
2013-06-25 05:22:00,72.0,68.4,29.64,East,79,0.0,1.0,88,0.00,,,0.00,meteohub,2013-06-25 10:22:00,
2013-06-25 05:27:00,72.0,68.4,29.62,East,79,0.0,1.0,88,0.00,,,0.00,meteohub,2013-06-25 10:27:00,
2013-06-25 05:32:00,72.0,68.9,29.63,East,79,0.0,1.0,88,0.00,,,0.00,meteohub,2013-06-25 10:32:00,
2013-06-25 05:37:00,72.0,68.9,29.64,East,79,0.0,3.0,89,0.00,,,0.00,meteohub,2013-06-25 10:37:00,
2013-06-25 05:42:00,72.0,69.1,29.64,East,79,0.0,3.0,88,0.00,,,0.00,meteohub,2013-06-25 10:42:00,
2013-06-25 05:47:00,72.0,68.9,29.65,SSE,156,0.0,3.0,88,0.00,,,0.00,meteohub,2013-06-25 10:47:00,
2013-06-25 05:52:00,73.0,69.1,29.65,SSE,168,3.0,4.0,87,0.00,,,0.00,meteohub,2013-06-25 10:52:00,
2013-06-25 05:57:00,73.0,69.1,29.66,South,169,4.0,5.0,86,0.00,,,0.00,meteohub,2013-06-25 10:57:00,
2013-06-25 06:02:00,73.0,69.1,29.65,South,178,0.0,7.0,85,0.00,,,0.00,meteohub,2013-06-25 11:02:00,
2013-06-25 06:07:00,73.0,69.1,29.67,South,178,0.0,7.0,86,0.00,,,0.00,meteohub,2013-06-25 11:07:00,
2013-06-25 06:12:00,73.0,69.4,29.67,South,178,0.0,7.0,86,0.00,,,0.00,meteohub,2013-06-25 11:12:00,
2013-06-25 06:22:00,73.0,69.1,29.66,South,178,0.0,1.0,86,0.00,,,0.00,meteohub,2013-06-25 11:22:00,
2013-06-25 06:27:00,73.0,68.9,29.66,South,178,0.0,0.0,86,0.00,,,0.00,meteohub,2013-06-25 11:27:00,
2013-06-25 06:32:00,73.0,68.4,29.67,South,178,0.0,2.0,85,0.00,,,0.00,meteohub,2013-06-25 11:32:00,
2013-06-25 06:37:00,73.0,68.4,29.66,South,179,0.0,5.0,86,0.00,,,0.00,meteohub,2013-06-25 11:37:00,
2013-06-25 06:42:00,73.0,68.7,29.65,South,179,0.0,5.0,87,0.00,,,0.00,meteohub,2013-06-25 11:42:00,
2013-06-25 06:47:00,72.0,68.5,29.65,South,179,0.0,5.0,88,0.00,,,0.00,meteohub,2013-06-25 11:47:00,
2013-06-25 06:52:00,72.0,68.4,29.65,South,179,0.0,0.0,87,0.00,,,0.00,meteohub,2013-06-25 11:52:00,
2013-06-25 06:57:00,72.0,68.5,29.67,South,179,2.0,2.0,87,0.00,,,0.00,meteohub,2013-06-25 11:57:00,
2013-06-25 07:02:00,72.0,67.6,29.67,SSE,165,0.0,6.0,86,0.00,,,0.00,meteohub,2013-06-25 12:02:00,
2013-06-25 07:07:00,72.0,67.5,29.66,SE,130,2.0,6.0,85,0.00,,,0.00,meteohub,2013-06-25 12:07:00,
2013-06-25 07:12:00,72.0,67.1,29.68,SE,146,2.0,6.0,84,0.00,,,0.00,meteohub,2013-06-25 12:12:00,
2013-06-25 07:17:00,72.0,66.6,29.68,SSE,151,5.0,5.0,83,0.00,,,0.00,meteohub,2013-06-25 12:17:00,
2013-06-25 07:22:00,72.0,66.2,29.69,ESE,110,4.0,6.0,83,0.00,,,0.00,meteohub,2013-06-25 12:22:00,
2013-06-25 07:27:00,71.1,65.3,29.68,ESE,120,5.0,8.0,81,0.00,,,0.00,meteohub,2013-06-25 12:27:00,
2013-06-25 07:32:00,71.1,64.8,29.68,SSE,156,4.0,8.0,81,0.00,,,0.00,meteohub,2013-06-25 12:32:00,
2013-06-25 07:37:00,70.0,64.8,29.68,SSE,147,6.0,12.0,82,0.00,,,0.00,meteohub,2013-06-25 12:37:00,
2013-06-25 07:42:00,70.0,64.6,29.67,ESE,123,0.0,12.0,82,0.00,,,0.00,meteohub,2013-06-25 12:42:00,
2013-06-25 07:47:00,70.0,64.8,29.68,ESE,123,0.0,12.0,83,0.00,,,0.00,meteohub,2013-06-25 12:47:00,
2013-06-25 07:52:00,70.0,65.1,29.68,ESE,123,0.0,8.0,84,0.00,,,0.00,meteohub,2013-06-25 12:52:00,
2013-06-25 07:57:00,70.0,64.2,29.68,ESE,123,0.0,1.0,84,0.00,,,0.00,meteohub,2013-06-25 12:57:00,
2013-06-25 08:02:00,70.0,63.7,29.68,SE,126,0.0,2.0,81,0.00,,,0.00,meteohub,2013-06-25 13:02:00,
2013-06-25 08:07:00,70.0,64.0,29.68,SE,124,0.0,4.0,83,0.00,,,0.00,meteohub,2013-06-25 13:07:00,
2013-06-25 08:12:00,70.0,64.0,29.68,SE,124,0.0,4.0,85,0.00,,,0.00,meteohub,2013-06-25 13:12:00,
2013-06-25 08:17:00,70.0,63.9,29.68,SE,126,0.0,1.0,84,0.00,,,0.00,meteohub,2013-06-25 13:17:00,
2013-06-25 08:22:00,70.0,64.2,29.68,SE,126,0.0,2.0,80,0.00,,,0.00,meteohub,2013-06-25 13:22:00,
2013-06-25 08:27:00,71.1,64.6,29.68,SE,126,0.0,2.0,81,0.00,,,0.00,meteohub,2013-06-25 13:27:00,
2013-06-25 08:32:00,71.1,64.8,29.68,SE,126,0.0,2.0,85,0.00,,,0.00,meteohub,2013-06-25 13:32:00,
2013-06-25 08:37:00,71.1,64.6,29.68,SE,126,0.0,1.0,79,0.00,,,0.00,meteohub,2013-06-25 13:37:00,
2013-06-25 08:42:00,72.0,65.3,29.68,SE,126,0.0,1.0,82,0.00,,,0.00,meteohub,2013-06-25 13:42:00,
2013-06-25 08:47:00,72.0,65.7,29.68,SE,126,0.0,1.0,79,0.00,,,0.00,meteohub,2013-06-25 13:47:00,
2013-06-25 08:52:00,72.0,65.8,29.68,SE,126,0.0,1.0,79,0.00,,,0.00,meteohub,2013-06-25 13:52:00,
2013-06-25 08:57:00,73.0,66.2,29.68,SE,126,0.0,3.0,80,0.00,,,0.00,meteohub,2013-06-25 13:57:00,
2013-06-25 09:07:00,73.0,65.8,29.67,SSE,158,2.0,3.0,78,0.00,,,0.00,meteohub,2013-06-25 14:07:00,
2013-06-25 09:12:00,73.9,66.2,29.67,SSE,151,3.0,8.0,76,0.00,,,0.00,meteohub,2013-06-25 14:12:00,
2013-06-25 09:17:00,73.9,67.3,29.67,SSE,157,3.0,8.0,78,0.00,,,0.00,meteohub,2013-06-25 14:17:00,
2013-06-25 09:22:00,75.0,66.4,29.67,SSW,194,0.0,8.0,76,0.00,,,0.00,meteohub,2013-06-25 14:22:00,
2013-06-25 09:27:00,75.9,67.1,29.67,SSW,210,7.0,8.0,75,0.00,,,0.00,meteohub,2013-06-25 14:27:00,
2013-06-25 09:32:00,75.9,66.9,29.66,SSW,201,9.0,9.0,73,0.00,,,0.00,meteohub,2013-06-25 14:32:00,
2013-06-25 09:37:00,75.9,65.8,29.66,SSW,209,6.0,10.0,72,0.00,,,0.00,meteohub,2013-06-25 14:37:00,
2013-06-25 09:42:00,77.0,67.1,29.66,SSW,212,8.0,11.0,71,0.00,,,0.00,meteohub,2013-06-25 14:42:00,
2013-06-25 09:47:00,77.0,66.4,29.66,SSW,192,3.0,11.0,71,0.00,,,0.00,meteohub,2013-06-25 14:47:00,
2013-06-25 09:52:00,77.0,66.6,29.66,South,184,5.0,15.0,69,0.00,,,0.00,meteohub,2013-06-25 14:52:00,
2013-06-25 09:57:00,77.0,67.1,29.65,South,177,3.0,15.0,71,0.00,,,0.00,meteohub,2013-06-25 14:57:00,
2013-06-25 10:02:00,78.1,66.9,29.66,SSW,192,7.0,15.0,68,0.00,,,0.00,meteohub,2013-06-25 15:02:00,
2013-06-25 10:07:00,78.1,67.6,29.65,South,187,4.0,11.0,66,0.00,,,0.00,meteohub,2013-06-25 15:07:00,
2013-06-25 10:12:00,79.0,67.1,29.65,SSW,194,1.0,11.0,66,0.00,,,0.00,meteohub,2013-06-25 15:12:00,
2013-06-25 10:17:00,80.1,66.6,29.65,SSW,211,2.0,13.0,64,0.00,,,0.00,meteohub,2013-06-25 15:17:00,
2013-06-25 10:22:00,80.1,66.6,29.65,South,188,0.0,13.0,65,0.00,,,0.00,meteohub,2013-06-25 15:22:00,
2013-06-25 10:27:00,80.1,67.3,29.65,SSE,161,3.0,13.0,63,0.00,,,0.00,meteohub,2013-06-25 15:27:00,
2013-06-25 10:32:00,80.1,67.3,29.65,South,172,4.0,15.0,67,0.00,,,0.00,meteohub,2013-06-25 15:32:00,
2013-06-25 10:37:00,81.0,68.9,29.64,South,175,10.0,15.0,66,0.00,,,0.00,meteohub,2013-06-25 15:37:00,
2013-06-25 10:42:00,81.0,69.4,29.64,South,191,11.0,15.0,67,0.00,,,0.00,meteohub,2013-06-25 15:42:00,
2013-06-25 10:47:00,81.0,69.8,29.64,SSE,165,7.0,14.0,67,0.00,,,0.00,meteohub,2013-06-25 15:47:00,
2013-06-25 10:57:00,82.0,71.8,29.63,South,171,3.0,13.0,67,0.00,,,0.00,meteohub,2013-06-25 15:57:00,
2013-06-25 11:02:00,82.0,71.4,29.63,SW,221,7.0,15.0,68,0.00,,,0.00,meteohub,2013-06-25 16:02:00,
2013-06-25 11:07:00,82.9,71.1,29.63,South,178,4.0,15.0,68,0.00,,,0.00,meteohub,2013-06-25 16:07:00,
2013-06-25 11:17:00,82.9,70.3,29.62,SSW,202,8.0,15.0,67,0.00,,,0.00,meteohub,2013-06-25 16:17:00,
2013-06-25 11:22:00,82.9,70.7,29.62,SSE,162,11.0,19.0,66,0.00,,,0.00,meteohub,2013-06-25 16:22:00,
2013-06-25 11:27:00,84.0,71.1,29.62,South,178,13.0,19.0,66,0.00,,,0.00,meteohub,2013-06-25 16:27:00,
2013-06-25 11:32:00,84.0,70.9,29.62,South,186,10.0,19.0,67,0.00,,,0.00,meteohub,2013-06-25 16:32:00,
2013-06-25 11:37:00,82.9,70.5,29.62,South,179,1.0,19.0,66,0.00,,,0.00,meteohub,2013-06-25 16:37:00,
2013-06-25 11:42:00,82.9,70.3,29.62,SSE,163,4.0,19.0,66,0.00,,,0.00,meteohub,2013-06-25 16:42:00,
2013-06-25 11:47:00,82.0,70.0,29.62,SSE,158,1.0,18.0,68,0.00,,,0.00,meteohub,2013-06-25 16:47:00,
2013-06-25 11:57:00,81.0,70.9,29.63,SE,136,4.0,15.0,70,0.00,,,0.00,meteohub,2013-06-25 16:57:00,
2013-06-25 12:07:00,81.0,70.3,29.63,SSE,154,8.0,16.0,72,0.00,,,0.00,meteohub,2013-06-25 17:07:00,
2013-06-25 12:12:00,81.0,71.1,29.63,SSE,165,4.0,16.0,73,0.00,,,0.00,meteohub,2013-06-25 17:12:00,
2013-06-25 12:17:00,81.0,71.1,29.63,SSE,165,9.0,16.0,73,0.00,,,0.00,meteohub,2013-06-25 17:17:00,
2013-06-25 12:22:00,81.0,71.4,29.63,SSE,163,1.0,14.0,73,0.00,,,0.00,meteohub,2013-06-25 17:22:00,
2013-06-25 12:27:00,82.0,72.1,29.63,South,172,4.0,14.0,73,0.00,,,0.00,meteohub,2013-06-25 17:27:00,
2013-06-25 12:37:00,82.0,72.1,29.63,SE,128,4.0,16.0,72,0.00,,,0.00,meteohub,2013-06-25 17:37:00,
2013-06-25 12:42:00,82.9,73.6,29.63,South,184,7.0,18.0,72,0.00,,,0.00,meteohub,2013-06-25 17:42:00,
2013-06-25 12:47:00,82.9,72.5,29.63,SW,216,10.0,18.0,73,0.00,,,0.00,meteohub,2013-06-25 17:47:00,
2013-06-25 12:52:00,82.9,73.4,29.63,SE,132,7.0,18.0,76,0.00,,,0.00,meteohub,2013-06-25 17:52:00,
2013-06-25 13:02:00,82.9,73.6,29.62,SW,215,8.0,18.0,71,0.00,,,0.00,meteohub,2013-06-25 18:02:00,
2013-06-25 13:07:00,82.9,73.2,29.62,SSE,166,3.0,18.0,73,0.00,,,0.00,meteohub,2013-06-25 18:07:00,
2013-06-25 13:12:00,82.9,73.4,29.62,SSE,156,6.0,18.0,71,0.00,,,0.00,meteohub,2013-06-25 18:12:00,
2013-06-25 13:22:00,82.9,74.5,29.61,SSE,162,5.0,15.0,73,0.00,,,0.00,meteohub,2013-06-25 18:22:00,
2013-06-25 13:27:00,82.9,73.2,29.61,SSW,199,7.0,16.0,73,0.00,,,0.00,meteohub,2013-06-25 18:27:00,
2013-06-25 13:32:00,82.9,73.2,29.61,SSW,192,7.0,19.0,73,0.00,,,0.00,meteohub,2013-06-25 18:32:00,
2013-06-25 13:37:00,82.9,73.6,29.61,SSW,203,6.0,19.0,73,0.00,,,0.00,meteohub,2013-06-25 18:37:00,
2013-06-25 13:42:00,82.9,73.4,29.61,SSE,163,7.0,19.0,72,0.00,,,0.00,meteohub,2013-06-25 18:42:00,
2013-06-25 13:52:00,82.9,73.2,29.61,SSE,150,5.0,15.0,72,0.00,,,0.00,meteohub,2013-06-25 18:52:00,
2013-06-25 13:57:00,82.9,73.8,29.61,SSE,165,2.0,14.0,74,0.00,,,0.00,meteohub,2013-06-25 18:57:00,
2013-06-25 14:02:00,82.9,73.6,29.60,SSE,163,1.0,16.0,72,0.00,,,0.00,meteohub,2013-06-25 19:02:00,
2013-06-25 14:07:00,82.9,74.1,29.60,South,178,3.0,16.0,74,0.00,,,0.00,meteohub,2013-06-25 19:07:00,
2013-06-25 14:12:00,82.9,74.5,29.60,South,188,9.0,16.0,74,0.00,,,0.00,meteohub,2013-06-25 19:12:00,
2013-06-25 14:17:00,82.9,73.6,29.59,South,187,4.0,14.0,73,0.00,,,0.00,meteohub,2013-06-25 19:17:00,
2013-06-25 14:22:00,84.0,74.8,29.59,South,181,4.0,15.0,73,0.00,,,0.00,meteohub,2013-06-25 19:22:00,
2013-06-25 14:27:00,84.0,74.3,29.59,SSW,198,6.0,15.0,73,0.00,,,0.00,meteohub,2013-06-25 19:27:00,
2013-06-25 14:32:00,84.0,74.3,29.59,SW,221,8.0,15.0,74,0.00,,,0.00,meteohub,2013-06-25 19:32:00,
2013-06-25 14:37:00,84.9,75.2,29.59,South,190,0.0,14.0,72,0.00,,,0.00,meteohub,2013-06-25 19:37:00,
2013-06-25 14:42:00,84.9,75.4,29.59,SSW,195,6.0,15.0,71,0.00,,,0.00,meteohub,2013-06-25 19:42:00,
2013-06-25 14:47:00,84.9,74.8,29.59,South,188,8.0,16.0,72,0.00,,,0.00,meteohub,2013-06-25 19:47:00,
2013-06-25 14:52:00,84.9,74.5,29.59,South,183,1.0,16.0,72,0.00,,,0.00,meteohub,2013-06-25 19:52:00,
2013-06-25 14:57:00,84.9,73.9,29.59,South,169,7.0,16.0,71,0.00,,,0.00,meteohub,2013-06-25 19:57:00,
2013-06-25 15:02:00,84.9,74.3,29.59,SSW,192,6.0,15.0,70,0.00,,,0.00,meteohub,2013-06-25 20:02:00,
2013-06-25 15:07:00,84.0,74.8,29.59,SSW,202,9.0,14.0,73,0.00,,,0.00,meteohub,2013-06-25 20:07:00,
2013-06-25 15:12:00,84.0,75.2,29.59,SSW,205,7.0,13.0,72,0.00,,,0.00,meteohub,2013-06-25 20:12:00,
2013-06-25 15:22:00,84.9,74.5,29.59,SSW,203,12.0,13.0,71,0.00,,,0.00,meteohub,2013-06-25 20:22:00,
2013-06-25 15:27:00,84.9,75.0,29.59,South,190,6.0,15.0,70,0.00,,,0.00,meteohub,2013-06-25 20:27:00,
2013-06-25 15:32:00,86.0,75.9,29.59,South,179,7.0,15.0,73,0.00,,,0.00,meteohub,2013-06-25 20:32:00,
2013-06-25 15:37:00,86.0,75.0,29.59,SE,141,4.0,15.0,69,0.00,,,0.00,meteohub,2013-06-25 20:37:00,
2013-06-25 15:42:00,84.9,74.7,29.58,SSW,205,5.0,13.0,71,0.00,,,0.00,meteohub,2013-06-25 20:42:00,
2013-06-25 15:47:00,84.9,75.2,29.58,South,184,3.0,13.0,72,0.00,,,0.00,meteohub,2013-06-25 20:47:00,
2013-06-25 15:52:00,86.0,75.4,29.58,SSW,209,13.0,13.0,72,0.00,,,0.00,meteohub,2013-06-25 20:52:00,
2013-06-25 15:57:00,87.1,75.9,29.58,SSW,199,7.0,13.0,71,0.00,,,0.00,meteohub,2013-06-25 20:57:00,
2013-06-25 16:02:00,87.1,75.6,29.58,South,189,10.0,13.0,69,0.00,,,0.00,meteohub,2013-06-25 21:02:00,
2013-06-25 16:07:00,86.0,76.1,29.58,SSW,205,10.0,13.0,70,0.00,,,0.00,meteohub,2013-06-25 21:07:00,
2013-06-25 16:12:00,86.0,75.7,29.57,SSW,206,7.0,13.0,71,0.00,,,0.00,meteohub,2013-06-25 21:12:00,
2013-06-25 16:17:00,86.0,75.6,29.57,SSW,196,5.0,12.0,71,0.00,,,0.00,meteohub,2013-06-25 21:17:00,
2013-06-25 16:22:00,86.0,75.7,29.57,South,190,5.0,12.0,70,0.00,,,0.00,meteohub,2013-06-25 21:22:00,
2013-06-25 16:27:00,86.0,76.1,29.57,SSW,198,8.0,11.0,72,0.00,,,0.00,meteohub,2013-06-25 21:27:00,
2013-06-25 16:32:00,86.0,76.3,29.57,SSW,196,2.0,11.0,71,0.00,,,0.00,meteohub,2013-06-25 21:32:00,
2013-06-25 16:37:00,86.0,76.5,29.57,South,171,2.0,11.0,73,0.00,,,0.00,meteohub,2013-06-25 21:37:00,
2013-06-25 16:42:00,87.1,76.5,29.57,SSE,165,5.0,9.0,70,0.00,,,0.00,meteohub,2013-06-25 21:42:00,
2013-06-25 16:47:00,87.1,76.5,29.57,SSE,151,3.0,10.0,70,0.00,,,0.00,meteohub,2013-06-25 21:47:00,
2013-06-25 16:52:00,87.1,75.9,29.57,SSE,162,3.0,11.0,71,0.00,,,0.00,meteohub,2013-06-25 21:52:00,
2013-06-25 16:57:00,87.1,75.9,29.57,SSE,148,5.0,11.0,71,0.00,,,0.00,meteohub,2013-06-25 21:57:00,
2013-06-25 17:02:00,87.1,76.6,29.57,SSE,159,1.0,10.0,70,0.00,,,0.00,meteohub,2013-06-25 22:02:00,
2013-06-25 17:07:00,87.1,76.1,29.57,South,184,8.0,11.0,69,0.00,,,0.00,meteohub,2013-06-25 22:07:00,
2013-06-25 17:12:00,87.1,76.6,29.57,SE,144,2.0,11.0,70,0.00,,,0.00,meteohub,2013-06-25 22:12:00,
2013-06-25 17:17:00,87.1,75.7,29.57,SE,144,2.0,10.0,68,0.00,,,0.00,meteohub,2013-06-25 22:17:00,
2013-06-25 17:22:00,87.1,76.5,29.57,SE,127,3.0,10.0,69,0.00,,,0.00,meteohub,2013-06-25 22:22:00,
2013-06-25 17:27:00,88.0,75.9,29.57,SSE,165,2.0,9.0,69,0.00,,,0.00,meteohub,2013-06-25 22:27:00,
2013-06-25 17:32:00,88.0,76.3,29.57,SE,142,3.0,10.0,68,0.00,,,0.00,meteohub,2013-06-25 22:32:00,
2013-06-25 17:37:00,88.0,76.6,29.56,SE,132,2.0,12.0,70,0.00,,,0.00,meteohub,2013-06-25 22:37:00,
2013-06-25 17:42:00,88.0,76.6,29.56,SE,128,5.0,12.0,70,0.00,,,0.00,meteohub,2013-06-25 22:42:00,
2013-06-25 17:47:00,87.1,77.2,29.56,SE,144,0.0,10.0,71,0.00,,,0.00,meteohub,2013-06-25 22:47:00,
2013-06-25 17:52:00,87.1,76.8,29.56,SE,134,0.0,10.0,71,0.00,,,0.00,meteohub,2013-06-25 22:52:00,
2013-06-25 17:57:00,87.1,77.0,29.56,SSE,159,0.0,8.0,73,0.00,,,0.00,meteohub,2013-06-25 22:57:00,
2013-06-25 18:02:00,87.1,77.9,29.56,SE,124,0.0,6.0,72,0.00,,,0.00,meteohub,2013-06-25 23:02:00,
2013-06-25 18:07:00,87.1,77.5,29.56,East,101,2.0,6.0,72,0.00,,,0.00,meteohub,2013-06-25 23:07:00,
2013-06-25 18:12:00,87.1,77.4,29.55,SSE,159,1.0,4.0,71,0.00,,,0.00,meteohub,2013-06-25 23:12:00,
2013-06-25 18:22:00,87.1,77.4,29.55,SE,130,0.0,6.0,71,0.00,,,0.00,meteohub,2013-06-25 23:22:00,
2013-06-25 18:27:00,87.1,77.9,29.55,SSE,161,1.0,5.0,73,0.00,,,0.00,meteohub,2013-06-25 23:27:00,
2013-06-25 18:32:00,87.1,77.0,29.55,SE,125,0.0,5.0,73,0.00,,,0.00,meteohub,2013-06-25 23:32:00,
2013-06-25 18:37:00,87.1,77.2,29.55,South,189,0.0,6.0,71,0.00,,,0.00,meteohub,2013-06-25 23:37:00,
2013-06-25 18:42:00,87.1,77.5,29.55,SE,131,0.0,6.0,72,0.00,,,0.00,meteohub,2013-06-25 23:42:00,
2013-06-25 18:47:00,87.1,77.2,29.56,SSE,160,0.0,6.0,71,0.00,,,0.00,meteohub,2013-06-25 23:47:00,
2013-06-25 18:52:00,87.1,77.2,29.56,SE,134,0.0,5.0,72,0.00,,,0.00,meteohub,2013-06-25 23:52:00,
2013-06-25 18:57:00,87.1,77.5,29.56,ESE,121,0.0,5.0,72,0.00,,,0.00,meteohub,2013-06-25 23:57:00,
2013-06-25 19:02:00,87.1,77.5,29.56,SE,132,1.0,4.0,73,0.00,,,0.00,meteohub,2013-06-26 00:02:00,
2013-06-25 19:07:00,87.1,77.9,29.56,ESE,113,2.0,4.0,73,0.00,,,0.00,meteohub,2013-06-26 00:07:00,
2013-06-25 19:12:00,87.1,78.3,29.56,East,82,0.0,4.0,76,0.00,,,0.00,meteohub,2013-06-26 00:12:00,
2013-06-25 19:17:00,86.0,78.6,29.55,East,84,0.0,4.0,78,0.00,,,0.00,meteohub,2013-06-26 00:17:00,
2013-06-25 19:22:00,86.0,79.5,29.55,East,84,0.0,3.0,78,0.00,,,0.00,meteohub,2013-06-26 00:22:00,
2013-06-25 19:27:00,86.0,79.0,29.55,East,99,0.0,3.0,79,0.00,,,0.00,meteohub,2013-06-26 00:27:00,
2013-06-25 19:32:00,84.9,78.6,29.55,East,84,0.0,5.0,80,0.00,,,0.00,meteohub,2013-06-26 00:32:00,
2013-06-25 19:37:00,84.9,78.6,29.55,ESE,106,2.0,5.0,79,0.00,,,0.00,meteohub,2013-06-26 00:37:00,
2013-06-25 19:42:00,84.9,77.7,29.55,ESE,119,1.0,5.0,77,0.00,,,0.00,meteohub,2013-06-26 00:42:00,
2013-06-25 19:52:00,84.9,77.7,29.55,East,100,5.0,9.0,77,0.00,,,0.00,meteohub,2013-06-26 00:52:00,
2013-06-25 19:57:00,84.9,77.0,29.55,ESE,103,2.0,6.0,78,0.00,,,0.00,meteohub,2013-06-26 00:57:00,
2013-06-25 20:02:00,84.0,76.8,29.55,East,92,0.0,8.0,78,0.00,,,0.00,meteohub,2013-06-26 01:02:00,
2013-06-25 20:07:00,84.0,77.0,29.55,East,92,1.0,8.0,79,0.00,,,0.00,meteohub,2013-06-26 01:07:00,
2013-06-25 20:12:00,82.9,76.6,29.55,East,94,0.0,6.0,80,0.00,,,0.00,meteohub,2013-06-26 01:12:00,
2013-06-25 20:17:00,82.9,76.6,29.55,East,84,0.0,6.0,80,0.00,,,0.00,meteohub,2013-06-26 01:17:00,
2013-06-25 20:22:00,82.9,76.5,29.55,East,88,0.0,6.0,81,0.00,,,0.00,meteohub,2013-06-26 01:22:00,
2013-06-25 20:27:00,82.9,76.6,29.55,ESE,105,1.0,5.0,81,0.00,,,0.00,meteohub,2013-06-26 01:27:00,
2013-06-25 20:32:00,82.0,76.6,29.55,East,96,2.0,5.0,82,0.00,,,0.00,meteohub,2013-06-26 01:32:00,
2013-06-25 20:37:00,82.0,76.3,29.55,East,92,1.0,5.0,82,0.00,,,0.00,meteohub,2013-06-26 01:37:00,
2013-06-25 20:42:00,82.0,76.1,29.55,East,86,1.0,5.0,82,0.00,,,0.00,meteohub,2013-06-26 01:42:00,
2013-06-25 20:47:00,82.0,76.1,29.55,East,87,0.0,4.0,83,0.00,,,0.00,meteohub,2013-06-26 01:47:00,
2013-06-25 20:52:00,81.0,75.9,29.55,East,91,0.0,4.0,83,0.00,,,0.00,meteohub,2013-06-26 01:52:00,
2013-06-25 20:57:00,81.0,75.9,29.55,East,101,1.0,3.0,83,0.00,,,0.00,meteohub,2013-06-26 01:57:00,
2013-06-25 21:02:00,81.0,75.9,29.55,East,91,0.0,3.0,84,0.00,,,0.00,meteohub,2013-06-26 02:02:00,
2013-06-25 21:07:00,81.0,75.7,29.55,East,94,0.0,3.0,84,0.00,,,0.00,meteohub,2013-06-26 02:07:00,
2013-06-25 21:12:00,81.0,75.9,29.55,East,84,0.0,3.0,84,0.00,,,0.00,meteohub,2013-06-26 02:12:00,
2013-06-25 21:17:00,80.1,75.7,29.55,East,84,0.0,3.0,85,0.00,,,0.00,meteohub,2013-06-26 02:17:00,
2013-06-25 21:22:00,80.1,75.9,29.55,ENE,69,1.0,3.0,85,0.00,,,0.00,meteohub,2013-06-26 02:22:00,
2013-06-25 21:27:00,80.1,75.6,29.55,ENE,69,0.0,3.0,86,0.00,,,0.00,meteohub,2013-06-26 02:27:00,
2013-06-25 21:32:00,79.0,75.7,29.55,NE,53,0.0,2.0,87,0.00,,,0.00,meteohub,2013-06-26 02:32:00,
2013-06-25 21:37:00,79.0,75.6,29.56,ENE,61,0.0,2.0,87,0.00,,,0.00,meteohub,2013-06-26 02:37:00,
2013-06-25 21:47:00,79.0,75.7,29.56,ENE,61,0.0,3.0,88,0.00,,,0.00,meteohub,2013-06-26 02:47:00,
2013-06-25 21:57:00,79.0,75.6,29.57,ENE,61,0.0,2.0,88,0.00,,,0.00,meteohub,2013-06-26 02:57:00,
2013-06-25 22:02:00,79.0,75.6,29.57,ENE,61,0.0,2.0,89,0.00,,,0.00,meteohub,2013-06-26 03:02:00,
2013-06-25 22:07:00,79.0,75.6,29.57,ENE,61,0.0,1.0,89,0.00,,,0.00,meteohub,2013-06-26 03:07:00,
2013-06-25 22:12:00,79.0,75.9,29.57,ENE,61,0.0,3.0,89,0.00,,,0.00,meteohub,2013-06-26 03:12:00,
2013-06-25 22:17:00,79.0,75.6,29.58,ENE,61,0.0,3.0,89,0.00,,,0.00,meteohub,2013-06-26 03:17:00,
2013-06-25 22:22:00,78.1,75.6,29.58,ENE,61,0.0,3.0,89,0.00,,,0.00,meteohub,2013-06-26 03:22:00,
2013-06-25 22:27:00,78.1,75.7,29.58,ENE,61,0.0,1.0,90,0.00,,,0.00,meteohub,2013-06-26 03:27:00,
2013-06-25 22:32:00,78.1,75.6,29.58,ENE,61,0.0,1.0,90,0.00,,,0.00,meteohub,2013-06-26 03:32:00,
2013-06-25 22:42:00,78.1,75.0,29.58,ENE,61,0.0,1.0,90,0.00,,,0.00,meteohub,2013-06-26 03:42:00,
2013-06-25 22:47:00,77.0,75.2,29.58,ENE,61,0.0,1.0,90,0.00,,,0.00,meteohub,2013-06-26 03:47:00,
2013-06-25 22:52:00,77.0,75.2,29.58,ENE,61,0.0,1.0,90,0.00,,,0.00,meteohub,2013-06-26 03:52:00,
2013-06-25 22:57:00,77.0,75.0,29.58,ENE,61,0.0,1.0,91,0.00,,,0.00,meteohub,2013-06-26 03:57:00,
2013-06-25 23:02:00,77.0,74.8,29.58,ENE,61,0.0,1.0,91,0.00,,,0.00,meteohub,2013-06-26 04:02:00,
2013-06-25 23:07:00,75.9,74.5,29.58,ENE,61,0.0,1.0,91,0.00,,,0.00,meteohub,2013-06-26 04:07:00,
2013-06-25 23:12:00,75.9,74.5,29.57,ENE,61,0.0,1.0,92,0.00,,,0.00,meteohub,2013-06-26 04:12:00,
2013-06-25 23:17:00,75.9,74.7,29.58,ENE,61,0.0,1.0,92,0.00,,,0.00,meteohub,2013-06-26 04:17:00,
2013-06-25 23:22:00,75.9,74.5,29.58,ENE,61,0.0,1.0,92,0.00,,,0.00,meteohub,2013-06-26 04:22:00,
2013-06-25 23:27:00,75.9,74.5,29.58,ENE,61,0.0,1.0,92,0.00,,,0.00,meteohub,2013-06-26 04:27:00,
2013-06-25 23:32:00,75.9,74.5,29.58,ENE,61,0.0,1.0,92,0.00,,,0.00,meteohub,2013-06-26 04:32:00,
2013-06-25 23:37:00,75.9,74.3,29.58,ENE,61,0.0,1.0,92,0.00,,,0.00,meteohub,2013-06-26 04:37:00,
2013-06-25 23:42:00,75.0,74.1,29.58,ENE,61,0.0,1.0,93,0.00,,,0.00,meteohub,2013-06-26 04:42:00,
2013-06-25 23:47:00,75.0,73.9,29.57,ENE,61,0.0,1.0,93,0.00,,,0.00,meteohub,2013-06-26 04:47:00,
2013-06-25 23:52:00,75.0,74.3,29.57,ENE,61,0.0,1.0,93,0.00,,,0.00,meteohub,2013-06-26 04:52:00,
2013-06-25 23:57:00,75.0,74.1,29.57,ENE,61,0.0,1.0,92,0.00,,,0.00,meteohub,2013-06-26 04:57:00,